Home   Weather   Wiesbaden   Past weeks

Flag for Germany Past Weather in Wiesbaden, Hesse, Germany — Yesterday and Last 2 Weeks

Now
55 °F

Scattered clouds.


Feels Like: 53 °F
Forecast: 38 / 65 °F
Wind: 8 mph from West

Location: Wiesbaden Airport

Current Time: Apr 29, 2017 at 1:38:43 pm

Latest Report: Apr 29, 2017 at 12:58 pm


Visibility: N/A

Pressure: 30.06 "Hg

Humidity: 41%

Dew Point: 32 °F

Location of WiesbadenLocation

Past Weather in Wiesbaden — Graph

°F

Wiesbaden Temperature Yesterday

Maximum temperature yesterday: 54 °F (at 3:58 pm)
Minimum temperature yesterday: 38 °F (at 5:58 am)
Average temperature yesterday: 47 °F

High & Low Weather Summary for the Past Weeks

 TemperatureHumidityPressure
High61 °F (Apr 24, 4:58 pm)96% (Apr 17, 8:58 am)30.63 "Hg (Apr 17, 8:58 am)
Low31 °F (Apr 24, 6:58 am)26% (Apr 20, 5:58 pm)29.71 "Hg (Apr 25, 4:58 am)
Average46 °F62%30.13 "Hg
* Reported Apr 14 11:58 am — Apr 29 11:58 am, Wiesbaden, Weather by CustomWeather, © 2017

Note: Actual official high and low records may vary slightly from our data, if they occured in-between our weather recording intervals... More about our weather records

Advertising

Wiesbaden Weather History for the Previous 24 Hours

Scroll right to see more
 ConditionsComfort  
Time TempWeatherWind HumidityBarometerVisibility
11:58 am
Sat, Apr 29
54 °FSunny.12 mph44%30.07 "HgN/A
10:58 am50 °FSunny.No wind52%30.08 "HgN/A
9:58 am50 °FPassing clouds.5 mph53%30.08 "HgN/A
8:58 am46 °FSunny.5 mph71%30.09 "HgN/A
7:58 am45 °FSunny.No wind76%30.08 "HgN/A
6:58 am43 °FScattered clouds.3 mph81%30.07 "HgN/A
5:58 am43 °FPartly cloudy.No wind81%30.06 "HgN/A
4:58 am43 °FPassing clouds.3 mph81%30.05 "HgN/A
3:58 am43 °FOvercast.No wind81%30.05 "HgN/A
2:58 am43 °FOvercast.5 mph81%30.04 "HgN/A
1:58 am44 °FOvercast.3 mph79%30.03 "HgN/A
12:58 am43 °FOvercast.6 mph79%30.03 "HgN/A
11:58 pm
Fri, Apr 28
46 °FOvercast.6 mph71%30.02 "HgN/A
10:58 pm46 °FPassing clouds.5 mph72%30.02 "HgN/A
9:58 pm45 °FPassing clouds.5 mph71%30.01 "HgN/A
8:58 pm47 °FPassing clouds.3 mph68%30.00 "HgN/A
7:58 pm52 °FSunny.6 mph50%29.98 "HgN/A
6:58 pm52 °FPassing clouds.7 mph47%29.98 "HgN/A
5:58 pm53 °FPassing clouds.7 mph43%29.96 "HgN/A
4:58 pm52 °FScattered clouds.7 mph41%29.96 "HgN/A
3:58 pm54 °FScattered clouds.6 mph36%29.96 "HgN/A
2:58 pm53 °FPartly sunny.5 mph38%29.95 "HgN/A
1:58 pm53 °FPassing clouds.3 mph39%29.94 "HgN/A
Weather by CustomWeather, © 2017

See weather overviewHow to use our weather pages